Wind_Speed
23 23 23 22 21 19 18 20 19 19 20 21 21 20 22 19 23 22 23 20 21 23 19 13 12 9 4 5 5 13 11 11 8 6 3 1 3 4 6 6 9 12 12 14 14 15 14
22 24 25 25 22 22 21 19 18 17 19 19 21 21 21 23 24 25 25 22 15 12 18 15 13 10 3 6 9 10 8 10 8 5 4 2 3 6 5 8 10 11 15 15 14 14 14
23 24 24 25 26 25 23 21 18 17 17 18 19 21 22 23 25 27 26 26 25 20 20 17 13 9 6 1 8 8 7 9 6 4 4 4 3 2 6 8 6 10 12 13 14 16 18
24 24 24 26 25 23 25 25 20 18 18 18 18 20 21 23 26 28 33 26 10 24 20 16 12 6 3 7 9 8 6 7 7 4 2 5 3 4 4 7 10 13 13 14 14 16 17
29 23 21 26 28 25 23 24 21 18 19 18 18 19 21 23 27 37 13 9 22 24 20 16 8 5 4 6 6 8 9 9 8 5 2 2 1 3 3 4 4 5 10 14 14 12 10
30 28 23 27 26 23 22 21 20 18 19 19 19 18 19 21 23 27 26 27 23 19 15 9 1 5 6 5 8 10 8 5 7 5 3 3 1 1 1 2 4 7 9 14 15 11 11
23 27 24 26 27 23 21 19 18 19 19 19 18 17 17 18 19 20 23 23 7 5 7 4 10 5 10 12 12 7 10 8 4 4 4 4 0 5 7 13 17 13 17 19 17 17 17
19 26 22 23 20 22 20 20 18 20 20 18 17 16 13 15 17 14 10 3 5 4 3 1 4 8 11 12 6 8 9 6 5 6 6 2 8 12 11 15 16 18 18 21 21 18 16
28 22 22 20 21 21 20 20 18 17 18 13 13 13 11 12 15 7 6 7 5 3 3 6 4 2 4 3 4 10 9 4 5 7 7 8 8 15 14 14 15 17 17 20 19 16 15
25 27 24 21 20 20 21 21 19 18 13 12 11 9 9 13 3 6 3 3 5 6 3 4 6 4 4 4 1 9 12 3 4 4 5 6 10 12 14 14 10 18 10 19 18 10 6
32 28 24 23 22 24 25 21 19 16 13 10 7 5 6 8 3 3 3 5 1 5 5 7 9 7 7 4 9 4 6 3 6 2 3 3 6 6 10 8 5 8 11 12 8 9 10
34 29 25 25 25 26 25 21 17 15 12 10 7 4 8 5 1 1 3 6 2 2 4 4 5 6 8 8 5 4 2 5 2 2 6 13 10 8 7 11 14 7 3 2 3 1 3
30 32 30 27 27 26 24 19 17 15 13 8 2 1 4 6 2 4 10 1 1 2 6 7 6 9 9 6 8 6 4 3 1 3 2 5 7 7 12 10 10 3 3 3 2 2 2
31 35 36 35 32 27 19 17 17 18 14 4 5 7 8 6 3 8 4 1 1 2 6 7 7 9 5 10 5 4 4 2 6 3 4 4 1 5 5 2 7 12 7 2 4 2 3
34 39 42 42 36 29 18 14 16 16 8 21 20 15 7 5 3 8 1 2 4 4 3 9 12 6 2 5 1 4 3 2 2 9 2 3 3 2 4 4 4 6 4 4 4 1 1
35 43 46 46 35 25 16 9 13 17 25 27 19 14 9 4 8 5 3 4 3 3 6 13 5 5 6 5 2 5 1 1 2 3 3 4 4 2 3 3 5 4 5 3 2 6 4
39 44 47 43 33 18 14 12 12 15 19 24 12 3 7 14 10 4 3 3 3 5 2 2 4 3 6 4 4 2 3 5 5 4 7 6 3 3 4 3 4 2 5 4 2 1 1
41 44 45 38 29 19 16 13 10 12 15 12 5 4 5 5 3 0 2 2 6 7 1 2 6 7 3 3 2 3 2 2 2 2 4 6 2 4 2 3 4 4 6 6 3 7 3
40 41 43 37 28 21 18 15 12 11 11 6 3 3 2 4 1 1 3 4 3 4 6 4 3 5 5 2 2 5 2 2 2 3 4 6 4 4 3 2 3 3 11 10 3 3 6
37 37 37 33 28 23 21 17 15 13 11 5 3 3 1 2 3 2 4 1 2 1 7 7 4 1 3 2 2 3 3 2 0 2 2 1 3 4 1 2 4 5 9 9 6 4 4
33 33 32 29 26 25 25 21 17 16 10 6 2 2 1 2 3 5 2 2 9 4 3 2 1 5 5 2 4 3 1 4 6 5 3 1 2 3 3 3 3 5 7 9 9 8 6
27 28 26 27 29 26 24 25 26 20 7 1 1 3 3 2 3 5 2 8 8 5 8 7 6 8 8 7 6 6 7 5 4 5 2 1 0 3 2 4 2 4 9 7 7 8 7
22 24 21 18 22 21 23 27 29 26 10 4 2 3 2 2 4 3 3 4 6 4 4 6 9 4 6 4 8 6 2 1 2 4 5 2 1 3 2 5 4 2 5 6 2 7 4
20 19 19 15 13 19 19 23 30 26 17 7 5 4 1 1 1 3 2 6 6 7 4 5 7 5 2 6 8 8 4 2 4 4 2 1 2 1 3 3 2 3 3 2 4 3 4
19 16 14 12 14 13 18 20 23 29 16 12 6 5 3 1 3 3 5 4 6 4 3 3 4 3 5 5 3 2 3 3 3 3 4 4 2 1 1 2 3 3 2 2 3 3 4
15 16 11 10 9 11 13 16 21 24 18 10 16 9 4 2 2 7 2 2 2 3 3 2 2 3 3 3 2 2 1 2 2 2 2 3 3 1 3 1 2 2 3 1 2 2 3
9 12 11 9 9 10 12 12 13 18 23 10 12 13 3 1 3 4 3 3 3 2 3 2 2 2 1 3 2 2 2 1 2 3 3 3 2 1 3 2 2 4 3 1 1 3 4
7 8 9 8 8 11 12 13 11 11 14 13 8 14 4 2 2 4 3 3 4 3 2 1 0 2 2 2 1 1 2 1 3 2 2 1 1 3 1 1 5 4 1 2 1 2 2
8 8 7 9 8 10 13 12 10 10 8 8 2 9 6 5 2 2 2 2 3 3 2 3 2 2 3 2 1 2 2 1 2 3 1 2 3 2 2 3 1 3 3 3 2 1 2
Wind_Direction
337 329 326 324 317 315 313 318 319 318 321 325 329 325 330 330 325 321 318 307 293 305 188 174 181 167 154 203 251 147 138 149 147 151 137 55 312 281 262 281 285 266 271 273 283 288 291
332 329 330 327 325 323 315 313 316 309 313 318 323 326 326 328 328 319 312 303 279 239 175 167 177 160 232 227 110 145 162 166 162 172 131 163 353 356 319 277 276 294 302 297 298 297 296
323 325 327 329 326 324 323 320 315 311 308 313 319 323 324 321 323 318 311 303 302 186 159 165 167 167 228 269 145 137 160 188 187 188 150 112 348 321 336 305 310 309 289 281 274 268 258
312 318 323 328 327 326 325 324 316 316 310 311 314 320 324 322 321 314 306 294 186 146 148 149 159 179 259 124 157 156 158 164 164 160 87 53 314 288 275 288 297 298 282 275 265 253 248
304 308 322 326 329 326 323 325 327 329 326 317 317 322 324 325 329 321 298 148 127 133 140 140 136 206 181 150 173 177 174 164 161 162 161 242 269 247 309 308 319 245 269 272 286 285 247
304 328 340 327 324 323 330 328 328 329 326 323 316 321 322 326 332 350 121 122 110 111 121 130 255 193 167 176 149 164 171 169 167 171 216 209 175 337 271 190 239 290 283 284 285 290 294
28 8 334 329 329 327 325 325 323 323 311 313 315 317 321 326 329 335 114 110 94 81 243 175 172 74 124 109 132 153 160 179 177 205 234 112 300 227 239 231 244 262 272 276 279 284 282
14 350 336 329 332 325 327 329 323 317 325 309 310 312 323 325 326 304 250 308 36 118 159 333 139 70 125 149 140 151 171 190 201 218 193 219 267 250 264 270 278 270 270 265 275 265 276
354 346 336 339 337 334 329 325 329 323 323 312 322 318 331 327 337 93 90 52 342 336 82 129 76 130 149 195 165 170 194 203 217 248 241 253 268 316 303 276 271 263 260 264 262 293 281
349 345 341 343 342 338 333 333 335 331 326 321 316 326 344 337 13 2 47 352 266 5 108 122 180 194 135 201 224 142 198 213 211 261 269 255 258 260 274 274 269 276 273 254 255 260 257
344 342 343 342 342 338 336 337 333 330 327 324 327 348 21 14 6 353 352 219 41 341 147 150 130 147 153 177 133 163 186 207 255 286 27 246 299 260 270 256 219 251 302 285 248 242 264
345 342 344 340 337 336 340 336 333 324 320 325 328 316 350 22 194 335 126 161 214 192 104 133 127 169 155 210 127 135 103 62 42 292 249 259 270 294 245 269 274 279 299 335 166 198 244
350 343 338 336 333 329 332 328 330 325 318 325 354 335 27 55 2 111 138 249 131 3 201 129 154 155 177 177 162 178 184 175 197 308 255 287 212 230 217 279 282 266 208 190 185 170 320
349 340 336 331 325 321 326 330 333 326 310 277 141 103 107 85 342 130 116 48 49 96 72 119 141 162 195 173 155 151 143 239 226 233 285 328 316 12 21 356 297 310 320 324 307 31 91
349 342 340 338 336 337 332 342 348 10 358 134 129 106 83 62 18 120 54 58 21 19 131 134 146 166 144 154 148 174 217 17 187 194 261 313 244 6 68 305 333 349 333 276 288 34 275
352 348 345 347 341 343 355 9 15 41 106 127 119 103 63 94 116 54 38 61 351 267 169 165 147 235 155 149 102 142 165 266 251 244 200 307 314 96 335 303 209 179 275 4 261 349 42
354 358 355 0 1 4 22 42 43 78 109 110 94 58 68 103 94 35 21 23 344 53 39 293 72 110 102 119 178 197 125 200 208 228 186 265 204 338 348 175 297 259 324 224 204 189 305
2 9 9 12 19 32 53 51 57 75 87 83 33 69 100 131 64 323 8 26 327 323 282 55 17 60 76 83 88 94 68 74 46 275 243 206 291 267 247 138 259 264 313 330 68 326 2
8 16 19 26 36 47 52 60 62 74 56 90 60 72 324 344 331 24 78 4 289 4 41 51 79 30 313 22 56 111 73 84 53 287 348 349 306 316 105 290 300 335 350 358 302 2 344
12 24 30 37 45 52 51 55 61 59 51 67 114 97 260 254 258 263 116 195 143 316 62 61 85 191 224 145 309 136 128 151 348 337 253 320 44 25 105 297 293 337 347 11 22 47 38
14 22 37 47 50 50 50 39 25 6 3 1 36 99 213 184 255 100 149 242 75 62 22 321 92 13 326 108 125 79 5 193 193 190 221 345 67 66 323 322 305 341 3 19 19 17 77
16 19 33 60 63 48 36 28 17 0 353 356 159 160 236 213 259 126 218 62 78 61 355 56 54 38 44 51 20 35 345 27 74 295 88 300 213 19 290 16 37 32 11 23 22 355 52
18 24 28 52 52 51 38 30 24 22 8 31 315 300 302 282 303 93 3 21 66 357 56 35 333 50 52 16 338 336 14 117 82 6 351 48 95 27 293 349 322 252 9 7 29 46 359
10 22 23 33 37 31 35 28 27 26 29 354 1 311 274 195 353 97 127 76 68 17 88 33 6 359 29 302 296 274 269 278 66 33 24 337 139 144 267 324 354 169 86 312 305 43 39
3 15 24 27 27 23 19 26 23 23 31 36 360 349 328 152 127 143 147 110 118 101 55 42 29 9 321 307 285 253 229 232 152 117 6 16 304 18 97 269 154 153 98 26 19 91 42
3 1 23 20 2 4 12 11 21 21 27 51 21 360 290 121 44 343 172 316 231 117 145 56 211 286 301 271 272 297 6 326 310 289 178 273 213 139 345 10 293 109 125 43 304 186 81
356 356 356 11 11 356 342 344 356 10 18 46 36 20 321 62 41 3 357 340 329 306 75 144 208 261 145 307 328 347 338 2 303 317 0 320 341 264 302 270 316 128 126 290 60 209 74
334 337 339 342 0 8 355 341 340 350 6 30 15 24 82 27 67 9 17 5 339 335 326 34 31 226 284 273 316 4 287 145 316 205 326 307 4 224 58 283 290 141 105 156 170 113 46
310 322 326 318 325 346 351 349 342 344 354 13 48 4 36 93 120 51 77 92 106 100 330 321 301 14 15 318 324 333 277 178 312 282 6 293 192 241 198 224 176 194 91 119 68 15 107
Height
826 822 817 811 807 803 799 798 796 794 792 789 787 784 782 779 776 774 772 771 769 766 768 771 777 779 783 782 778 780 782 784 784 785 786 784 786 785 787 782 781 780 778 775 774 772 770
825 820 816 811 806 801 796 793 791 790 788 785 783 781 779 776 772 770 767 765 763 764 764 770 776 778 782 780 778 779 782 784 784 785 787 786 785 786 788 788 788 780 778 777 775 774 773
822 816 811 806 802 799 796 790 786 785 784 782 780 777 775 772 768 766 762 761 756 758 764 770 774 777 779 776 777 779 782 784 786 787 785 786 789 789 787 788 782 780 783 779 777 775 773
818 813 807 802 797 793 793 789 783 780 779 778 775 774 772 769 764 759 754 753 749 755 764 770 773 777 775 776 777 780 783 785 786 788 787 787 790 789 790 788 787 786 781 781 768 765 762
810 807 802 799 795 791 787 786 781 776 774 773 772 770 768 765 761 750 744 750 751 756 764 770 773 776 771 776 777 779 782 785 787 788 789 788 790 789 789 794 796 791 790 776 765 755 754
801 801 799 796 792 788 784 780 778 773 772 769 769 767 766 763 759 756 747 751 756 761 767 772 774 780 774 771 775 778 782 785 787 787 788 788 791 792 791 801 810 785 778 769 764 755 749
794 801 795 792 788 785 781 777 775 769 765 767 767 765 763 762 760 758 755 756 763 770 768 764 766 764 765 771 775 779 782 786 787 787 787 787 800 795 789 789 785 784 783 776 765 757 754
796 795 791 787 784 782 778 774 771 765 762 763 762 762 762 760 759 757 758 754 757 761 764 765 764 765 769 772 776 779 784 786 788 789 783 792 795 784 777 776 775 774 775 770 759 757 756
797 793 788 784 781 778 775 771 767 764 761 759 759 760 760 759 757 756 757 758 758 758 758 767 770 770 773 775 771 778 784 783 786 783 780 788 777 771 777 774 777 774 773 766 765 759 759
799 794 788 783 779 775 772 768 763 761 760 759 758 759 760 757 760 758 758 761 762 759 764 775 773 771 774 774 775 776 781 783 782 781 776 781 774 775 771 773 775 767 752 756 761 764 759
799 793 787 782 778 773 769 764 761 759 758 757 758 759 760 760 762 761 764 762 762 761 751 770 770 772 771 774 775 780 781 782 781 777 788 775 767 771 773 771 766 754 753 750 752 755 758
798 792 785 780 775 771 766 762 758 756 755 755 756 759 761 761 762 762 762 763 766 762 752 769 771 773 774 773 774 781 785 788 792 788 786 783 772 774 766 754 751 749 756 747 745 751 743
796 791 784 778 772 767 763 759 755 752 752 753 755 759 762 763 763 765 765 766 761 753 760 769 767 769 766 769 772 778 783 786 783 781 776 763 758 754 758 752 737 744 753 735 747 753 720
795 789 781 774 767 762 758 755 752 748 747 750 755 759 762 765 762 764 766 768 753 756 758 754 761 763 773 763 765 772 778 778 784 782 775 763 767 751 747 751 750 739 740 733 728 719 722
794 787 778 770 763 757 753 753 750 747 741 745 753 758 764 767 766 766 767 760 763 761 753 753 759 762 762 759 760 764 767 766 766 773 773 769 767 749 751 750 747 742 739 742 732 727 720
793 785 776 765 758 755 753 753 753 751 745 748 754 758 767 769 770 771 770 766 767 757 748 748 750 745 755 756 761 767 765 775 770 769 771 765 761 750 752 748 745 750 739 738 734 727 721
793 783 775 764 757 755 755 756 757 758 759 756 756 762 774 773 774 776 773 772 765 753 751 751 745 743 748 753 758 758 764 769 769 765 768 765 764 753 752 749 741 741 731 728 721 720 729
794 783 776 766 761 760 760 761 763 762 762 764 763 770 780 778 779 780 774 773 769 759 749 749 745 743 746 749 752 754 757 756 757 757 758 751 753 751 739 734 733 734 728 722 746 735 728
796 787 779 773 768 768 768 768 768 767 767 768 774 780 783 782 775 776 773 774 771 754 750 748 751 750 749 749 754 754 753 754 754 754 756 754 755 762 749 742 733 729 726 722 715 720 733
798 790 782 779 777 776 776 774 774 772 770 769 775 784 785 783 776 766 770 773 762 755 753 751 752 750 748 749 746 754 753 754 754 754 757 758 751 761 773 756 750 746 735 728 732 754 740
803 796 787 783 782 783 783 782 780 776 773 771 769 778 776 778 767 761 762 763 756 758 753 752 753 752 750 751 750 753 752 751 753 754 753 753 763 770 751 747 744 743 741 737 741 736 748
807 801 796 789 786 786 786 786 782 776 772 772 769 775 773 766 762 760 762 758 759 761 763 758 757 753 752 760 762 758 755 756 758 750 749 749 768 761 772 746 743 748 748 742 742 742 739
809 805 800 796 793 790 789 787 783 779 775 772 772 769 769 770 763 763 767 765 765 763 767 767 765 759 764 769 765 760 756 755 754 756 754 755 765 777 767 752 750 761 758 754 747 750 752
811 807 803 800 797 795 791 789 786 782 780 779 777 774 767 771 766 768 766 766 769 769 768 770 769 762 772 768 764 760 754 752 752 753 752 754 756 770 784 759 773 758 754 755 755 750 752
813 808 804 801 800 797 795 791 788 785 781 781 780 778 771 771 769 768 767 769 770 771 773 774 773 774 772 770 766 761 761 757 752 753 754 753 755 769 783 778 753 756 757 758 760 758 755
812 811 805 802 800 798 796 794 791 788 785 781 783 780 778 772 781 774 769 767 768 770 774 775 775 774 773 771 765 764 767 762 760 755 751 752 753 763 764 770 754 755 757 756 756 765 760
810 810 808 804 801 799 798 796 793 791 787 786 783 782 782 780 787 785 780 778 773 770 773 774 773 773 773 772 769 771 774 766 767 763 762 763 758 764 765 769 753 753 754 755 759 770 760
811 807 806 804 801 798 797 795 793 792 790 786 788 784 783 785 790 790 789 786 781 777 774 777 777 776 774 775 773 771 773 769 770 757 759 764 768 766 762 764 777 753 756 756 762 760 759
809 807 805 804 802 798 796 794 794 793 790 788 786 786 785 784 791 792 792 791 791 792 793 780 779 775 778 777 774 772 774 771 767 770 762 772 763 767 761 759 752 751 754 758 759 760 759